GFSGL_850_spd_162.txt.gz
Wind_Speed
7 8 11 13 15 16 17 19 18 18 18 20 20 21 20 19 21 23 24 29 29 31 36 38 41 41 48 49 47 50 53 48 53 57 53 60 56 57 56 53 52 53 48
8 9 10 12 12 13 14 16 19 22 23 25 26 29 27 28 25 22 24 24 28 34 35 30 42 45 44 45 42 52 54 52 55 58 57 56 57 57 57 60 54 53 50
11 12 13 15 15 16 16 16 17 18 19 20 23 24 27 28 28 29 27 29 29 33 37 39 41 37 40 48 45 47 52 54 52 55 60 55 57 56 54 59 60 57 54
11 12 13 14 14 14 14 14 14 15 16 17 18 20 23 25 26 27 29 31 33 33 34 37 41 43 45 40 41 46 53 51 54 55 56 56 56 55 55 55 57 54 56
11 12 12 11 11 11 10 11 11 13 14 15 16 18 21 24 26 30 32 33 35 37 37 38 40 41 42 42 47 50 44 46 47 51 53 52 50 51 58 62 58 54 52
11 10 10 11 12 13 13 14 15 16 17 18 20 23 25 24 23 24 28 33 37 40 43 43 43 44 44 43 43 41 48 55 54 51 51 45 57 55 55 61 59 55 47
9 9 10 11 14 15 18 19 22 24 26 27 28 30 31 32 34 36 37 37 38 39 41 44 48 46 45 45 48 49 49 47 48 49 58 56 53 57 51 51 59 58 54
7 8 10 12 15 17 20 22 24 26 27 28 28 29 30 31 32 35 36 36 38 41 43 45 46 49 47 46 48 50 52 52 48 46 50 53 56 64 57 54 50 60 61
6 8 11 14 16 18 20 22 24 24 25 27 28 29 30 30 31 33 36 38 41 43 44 46 48 50 50 46 46 49 54 60 54 53 53 50 64 56 52 53 60 47 54
6 9 12 15 18 20 22 24 25 25 25 26 26 27 28 29 30 32 33 36 40 44 47 48 47 47 50 49 48 52 58 64 57 62 62 63 59 56 50 56 56 56 51
7 10 13 16 18 21 22 24 26 27 28 29 30 30 29 30 31 32 31 34 35 43 48 52 52 51 51 52 50 51 57 57 58 56 57 62 64 62 61 55 50 54 50
9 12 14 16 19 20 22 23 24 26 28 28 28 28 27 30 29 31 30 30 33 37 45 49 52 53 53 52 53 49 44 44 49 52 51 54 55 57 52 48 50 47 52
10 13 15 17 19 21 22 24 25 26 26 26 26 26 28 31 29 31 31 32 32 35 39 43 47 50 50 49 46 45 43 43 47 50 49 49 49 50 50 48 46 45 45
13 15 17 19 21 22 23 24 25 25 25 25 26 27 32 32 31 34 36 35 36 38 39 42 43 43 44 42 41 39 38 34 30 40 49 49 45 45 43 42 45 44 42
16 18 20 21 23 24 23 23 23 22 21 23 22 25 30 32 33 32 33 35 36 34 40 40 42 42 44 46 44 41 39 38 37 36 34 35 42 41 41 39 43 43 44
17 19 21 22 22 23 24 23 21 22 21 19 21 24 26 25 29 31 30 31 34 36 37 38 39 40 40 43 46 47 44 42 41 40 37 35 34 40 38 34 36 40 43
17 18 20 21 21 23 23 25 27 24 23 22 23 25 26 29 28 30 31 32 34 35 36 37 37 38 40 40 42 44 47 44 43 41 40 38 35 31 37 34 34 37 41
17 19 19 20 21 22 24 25 27 29 31 30 27 27 28 30 28 28 32 34 34 34 33 35 38 38 40 40 41 43 44 45 44 44 43 40 39 37 31 32 33 35 37
17 18 19 19 20 22 24 25 27 29 30 32 33 32 32 32 31 30 30 32 34 34 36 36 36 37 38 39 40 41 41 42 44 45 44 43 40 42 36 29 30 33 36
17 18 19 20 21 22 24 26 28 30 31 32 33 34 35 35 36 36 32 31 32 33 34 36 37 37 38 38 40 41 42 41 42 43 45 46 42 43 42 36 30 32 32
16 17 19 20 21 23 25 26 28 29 31 32 32 32 32 32 35 34 35 31 31 33 34 34 36 37 37 38 38 39 40 41 40 40 42 45 44 48 44 40 33 29 32
17 17 18 20 22 23 24 26 27 29 30 32 32 31 31 32 33 33 34 34 32 31 33 34 34 35 35 35 36 37 38 40 40 38 40 43 45 48 45 43 37 31 29
17 18 20 22 23 24 25 25 26 27 29 30 32 33 33 33 33 33 34 34 34 33 32 33 34 33 33 32 32 34 36 37 38 35 37 41 44 47 44 43 40 34 30
18 20 21 22 22 23 24 25 26 27 28 30 31 32 33 33 34 34 33 34 34 34 32 32 32 33 32 31 31 32 33 33 35 30 31 37 42 42 41 40 39 35 30
20 21 22 22 22 24 25 25 27 28 28 29 30 31 33 34 34 34 34 34 34 35 34 33 32 32 30 30 30 31 31 30 33 23 29 32 38 39 39 39 38 36 28
21 21 22 22 23 24 26 27 28 29 30 30 31 32 32 33 34 35 35 35 35 35 35 34 32 29 29 30 31 30 30 29 31 25 27 33 34 39 37 37 36 34 31

GFSGL_850_spd_165.txt.gz
Wind_Speed
8 8 8 9 10 12 14 15 16 17 18 20 20 21 21 21 21 21 21 23 23 24 26 26 29 32 31 30 33 36 51 44 43 51 45 48 47 49 49 48 51 52 54
11 11 12 13 15 16 17 17 18 17 17 17 17 17 17 18 18 19 22 23 26 29 31 32 33 32 33 36 40 44 44 36 40 35 48 44 46 46 50 51 55 52 53
13 13 14 15 16 16 16 15 15 13 12 11 11 10 11 13 15 17 20 23 25 26 28 30 32 33 33 33 34 39 42 50 54 51 41 43 44 51 49 45 52 60 51
14 14 14 14 14 13 13 12 11 10 9 9 9 11 12 14 15 18 21 24 26 28 29 31 32 32 33 34 34 36 38 40 42 44 49 49 45 44 42 48 50 51 56
14 13 12 12 10 9 8 8 8 9 10 10 11 11 13 15 19 24 26 28 29 30 30 32 33 34 35 33 37 37 36 41 45 47 50 47 48 47 42 44 46 47 53
13 11 10 9 8 7 6 7 8 9 11 12 14 18 20 21 24 27 30 31 31 33 36 37 38 39 41 43 43 43 41 38 40 39 43 40 49 47 45 47 51 45 45
12 10 9 7 6 6 7 9 11 13 15 17 19 21 21 22 25 28 30 31 32 33 35 37 39 39 41 43 45 47 47 42 35 37 43 45 48 46 41 47 47 41 52
11 9 8 6 5 7 9 12 14 16 17 19 20 21 22 23 26 28 30 31 32 33 34 36 38 39 39 41 46 49 49 48 48 47 48 60 55 57 50 49 56 62 67
9 8 7 6 6 7 10 13 14 15 17 18 20 21 22 22 24 28 30 32 33 34 34 34 36 39 40 41 46 50 53 53 52 50 49 53 59 61 53 50 60 45 62
9 8 6 5 7 9 11 14 17 19 20 21 21 22 23 24 25 27 28 31 34 36 35 34 34 36 39 40 41 44 52 55 58 59 56 56 55 58 54 44 50 47 51
7 5 5 6 8 10 12 15 17 19 21 22 23 23 23 24 25 27 27 29 33 36 38 39 39 37 39 39 36 38 39 48 55 55 56 53 48 49 50 50 46 47 51
7 5 5 7 9 11 13 15 17 19 21 22 23 24 22 24 26 26 27 26 29 31 36 40 40 40 39 39 39 35 37 41 44 49 52 53 53 50 41 47 53 51 52
5 5 6 8 10 12 15 16 18 19 21 21 23 23 25 27 28 27 29 28 30 31 36 37 38 40 41 41 41 41 40 41 42 45 48 50 51 50 50 48 46 53 51
6 7 8 10 12 14 15 16 18 19 19 21 23 25 28 29 28 30 30 36 32 35 39 39 40 40 40 40 41 42 41 40 41 42 46 48 48 48 47 42 41 44 48
6 8 10 12 14 15 16 16 17 18 19 21 22 24 27 30 28 28 27 32 33 34 36 38 39 40 42 42 41 41 42 41 42 43 45 48 49 48 48 45 43 41 43
8 10 12 15 16 17 18 17 17 19 19 20 22 24 27 27 28 28 26 28 29 32 36 37 38 38 40 42 42 42 41 42 43 43 44 44 47 49 50 48 45 43 42
10 12 14 16 17 18 19 21 23 19 21 22 23 25 27 30 31 29 28 30 32 33 34 35 36 37 39 40 40 41 42 42 42 42 42 43 45 48 50 46 48 48 49
12 14 15 16 18 19 20 22 23 25 27 27 25 27 28 30 31 29 29 33 33 32 32 34 36 36 38 39 40 40 40 41 42 42 42 42 42 46 50 45 48 48 50
14 15 16 17 18 19 20 21 23 25 27 30 30 28 29 29 30 28 29 29 32 33 34 35 34 35 37 38 38 38 38 40 41 43 42 42 42 44 47 44 48 51 48
15 16 17 18 18 19 20 22 25 26 27 28 28 28 30 32 32 32 31 30 30 31 33 34 34 35 36 38 38 38 38 39 41 42 43 42 41 43 43 42 48 50 50
17 18 18 19 19 21 22 24 25 26 27 28 28 27 27 28 31 31 31 32 32 32 33 34 34 34 35 36 37 37 37 38 39 41 43 42 40 43 41 40 47 49 48
18 18 19 20 21 22 23 24 25 26 27 28 29 29 28 29 30 31 32 32 33 33 32 34 35 33 34 35 35 35 36 37 38 40 42 40 39 40 40 43 47 47 49
19 19 20 21 23 24 24 24 25 26 27 28 29 30 31 31 31 32 33 33 33 34 35 34 34 34 32 33 31 32 34 36 37 37 40 37 37 40 41 42 44 45 48
20 20 21 22 23 24 24 25 26 27 28 29 30 30 31 32 33 34 34 34 34 34 34 36 35 34 33 32 31 29 31 32 33 33 34 31 37 38 39 40 42 43 44
22 22 23 23 23 24 25 26 27 28 29 30 31 32 32 33 34 34 35 36 36 36 36 36 37 36 33 31 30 29 30 28 26 27 27 30 34 35 39 39 41 42 40
23 23 23 24 24 25 27 28 28 29 31 31 32 33 34 35 35 35 36 36 37 38 37 37 36 35 34 32 28 28 28 25 26 25 26 30 33 36 37 39 39 38 38

GFSGL_850_spd_168.txt.gz
Wind_Speed
11 11 12 12 13 14 16 17 18 18 19 19 18 18 16 15 13 13 13 14 14 15 16 16 17 19 21 22 24 26 29 30 35 48 41 43 43 44 45 38 42 45 44
12 12 13 14 15 16 17 18 19 18 18 17 15 14 11 9 8 8 10 13 15 17 18 19 20 22 23 24 25 25 26 27 29 39 41 41 41 41 40 49 47 43 40
13 13 14 14 15 16 16 16 15 14 13 11 9 6 5 6 6 10 14 16 18 20 21 23 26 28 30 31 32 34 33 32 34 36 45 42 40 38 38 35 36 42 47
14 14 14 14 15 15 14 13 11 9 7 6 5 5 6 8 9 13 15 17 19 20 22 24 26 29 31 34 35 35 37 38 39 40 45 48 44 42 35 36 39 36 40
16 16 15 14 13 12 11 9 8 6 5 4 5 6 8 11 13 17 18 20 21 22 23 25 27 28 30 32 34 36 38 40 42 42 44 46 47 44 38 38 41 48 51
19 17 15 14 13 11 9 7 5 4 3 4 6 8 10 13 15 18 20 21 22 24 26 27 28 29 29 31 32 33 34 38 39 40 44 45 43 39 44 42 41 45 54
21 18 15 14 12 11 9 7 6 5 6 8 9 10 12 14 18 20 21 23 24 26 26 28 29 29 30 32 34 34 34 32 33 37 43 41 48 46 48 48 44 46 55
19 17 14 12 11 10 8 7 7 8 9 10 11 13 14 16 19 21 23 24 25 26 26 27 29 30 31 34 37 38 36 35 35 36 38 43 45 46 43 44 47 49 55
18 16 13 12 10 9 8 7 7 7 8 10 12 13 15 16 19 21 24 26 27 27 27 25 26 29 30 32 36 39 40 39 38 39 40 42 43 43 41 39 43 44 51
18 15 13 11 9 8 7 6 7 9 11 13 14 15 17 19 19 22 24 27 29 31 30 29 27 29 31 32 35 38 42 42 43 44 44 44 43 42 41 36 34 41 44
17 14 12 10 9 8 7 7 9 10 12 14 16 16 16 20 19 22 25 25 28 31 32 33 33 32 33 34 32 34 35 40 43 44 45 46 45 43 43 41 40 38 43
16 13 12 10 8 7 7 8 10 11 13 15 16 16 17 20 21 22 24 23 25 31 32 34 34 33 33 34 34 33 34 36 39 42 45 46 46 45 45 45 44 42 41
15 13 11 9 8 7 7 9 11 12 14 15 17 19 20 21 22 23 25 27 28 30 32 32 34 36 36 36 35 34 35 35 37 39 42 44 45 45 44 45 45 46 47
13 11 10 9 7 6 8 10 11 14 15 16 18 19 21 22 23 24 27 28 31 34 34 36 34 35 34 35 36 36 35 35 35 38 41 43 44 45 44 43 47 48 49
13 10 9 8 7 7 9 10 12 14 15 16 17 19 21 22 22 20 24 25 27 29 31 33 34 34 36 36 37 37 36 36 36 38 39 42 44 45 45 43 43 47 44
10 9 9 9 8 9 10 11 12 13 13 14 16 18 20 22 22 22 23 22 23 25 29 32 34 34 35 37 38 38 36 36 36 38 39 40 43 44 45 45 43 44 42
10 10 9 9 9 11 12 13 13 12 14 14 16 18 20 23 23 24 22 20 24 26 29 31 32 32 34 35 36 37 39 36 37 37 38 39 41 43 44 45 46 45 45
10 8 9 10 12 13 14 15 16 16 17 16 16 19 20 21 22 22 20 25 25 24 27 29 31 31 33 34 35 36 37 37 36 37 38 38 39 42 43 45 45 44 43
9 10 11 13 14 15 15 15 17 18 20 21 19 15 19 20 21 21 22 25 28 29 29 30 30 31 32 34 35 35 36 36 35 37 38 39 39 41 41 42 44 42 39
11 12 13 14 15 15 16 17 18 20 21 21 20 21 22 24 23 23 23 26 27 28 29 30 30 31 32 33 34 35 36 35 35 35 37 38 38 38 39 41 42 42 40
13 14 14 15 16 17 17 18 20 21 21 22 21 20 22 25 27 27 27 26 27 28 30 31 32 31 31 32 34 34 34 34 33 35 36 37 37 37 36 37 40 40 41
15 16 16 17 18 18 19 20 21 22 22 23 23 22 22 25 26 28 28 28 28 29 30 32 34 33 31 32 33 34 34 33 32 34 35 34 35 33 36 37 40 40 42
16 17 18 19 20 21 21 21 21 22 23 23 25 26 26 26 27 29 30 30 31 31 31 32 34 35 32 31 31 32 33 32 30 32 33 33 33 32 34 37 40 38 42
18 19 20 20 21 22 22 22 22 22 24 25 26 27 29 29 30 31 32 32 33 32 32 33 34 35 35 32 31 30 29 29 29 30 29 31 31 31 35 37 38 38 43
20 21 22 22 23 23 23 23 23 23 25 26 28 29 30 31 32 32 32 33 34 34 34 34 34 35 35 34 32 30 28 25 27 28 27 27 29 33 34 35 38 42 40
23 23 23 24 24 23 24 25 25 26 27 28 30 31 32 33 34 34 34 35 35 36 35 35 36 35 35 34 32 30 26 25 26 24 25 27 28 31 32 35 35 38 38

GFSGL_850_spd_171.txt.gz
Wind_Speed
14 13 12 11 11 12 13 14 15 17 18 18 18 16 15 14 12 10 7 4 3 4 5 6 8 9 11 13 14 15 18 18 22 33 33 34 32 32 32 30 28 31 35
17 16 14 14 14 14 15 15 16 17 17 16 14 13 12 9 5 2 3 4 6 7 9 11 13 15 17 19 21 22 23 24 28 37 39 42 42 41 41 41 38 34 32
20 18 18 17 16 15 15 15 15 14 13 12 10 9 7 4 2 3 5 7 8 10 11 14 16 19 21 23 24 25 27 29 30 34 40 40 42 43 45 45 47 46 45
22 21 19 17 16 14 14 14 13 13 11 10 8 7 6 4 3 4 6 8 10 12 13 15 18 21 23 25 27 28 29 31 33 35 38 41 42 43 41 46 51 49 54
25 22 20 18 15 14 12 12 11 10 9 8 7 6 6 5 5 7 9 10 11 12 14 15 18 20 22 24 26 28 29 31 33 34 37 38 41 43 43 45 48 52 52
26 24 20 17 15 14 12 11 10 10 9 8 6 6 7 7 8 9 11 13 14 15 16 17 19 20 22 24 24 25 26 29 30 32 32 34 38 38 41 43 45 48 53
28 25 22 19 16 14 12 11 10 10 9 8 8 7 8 9 10 12 12 14 15 16 17 19 20 20 22 24 25 25 25 24 26 29 31 34 37 37 40 43 43 43 46
29 26 23 20 18 16 14 12 11 11 9 8 8 7 7 9 11 15 14 15 16 16 17 18 20 21 22 25 27 28 27 26 26 29 30 34 35 36 36 38 40 45 47
29 26 23 21 19 17 15 13 12 10 9 8 7 7 7 9 11 14 17 17 18 17 16 16 17 20 22 25 27 29 30 29 29 30 31 33 33 34 34 38 40 43 53
29 26 24 22 20 17 15 13 12 10 9 8 7 8 10 9 11 14 18 19 20 21 20 19 18 20 22 23 26 29 32 33 36 37 36 36 35 35 34 33 35 38 41
28 25 23 20 18 16 14 12 11 9 8 7 7 8 10 11 12 14 17 18 20 22 22 22 23 22 23 24 25 27 29 34 36 37 38 37 37 36 35 34 32 32 36
27 26 23 20 18 15 13 11 9 8 8 8 8 9 11 12 14 14 16 17 17 21 22 24 23 23 25 26 26 27 30 32 33 34 35 36 37 37 37 37 35 33 32
23 22 22 20 16 13 13 11 10 8 8 10 10 11 12 13 13 15 16 18 19 19 24 20 25 25 26 27 26 27 28 29 31 33 34 35 36 38 39 39 38 38 40
21 19 18 17 14 14 12 10 9 9 10 11 12 13 13 13 14 15 18 19 19 21 24 26 24 25 25 26 26 26 25 26 28 31 33 35 37 38 39 39 41 42 44
19 18 16 14 14 13 11 10 10 11 12 13 13 14 15 15 15 15 15 18 17 18 24 23 25 26 27 27 26 27 26 27 29 31 32 35 37 39 40 40 39 41 44
16 15 16 16 13 11 12 11 11 11 11 12 12 14 16 17 17 15 15 14 15 19 23 25 26 26 26 27 28 29 28 27 28 30 32 33 36 39 41 40 38 39 44
18 19 16 14 15 13 11 11 11 12 11 12 13 15 17 18 17 15 15 13 18 20 22 23 24 25 26 27 28 29 31 29 29 30 31 33 35 37 39 39 38 39 44
17 17 15 14 13 13 12 12 12 13 13 12 14 16 17 16 15 16 15 18 17 18 21 23 24 25 26 27 28 29 30 30 30 31 31 32 33 35 37 37 37 39 42
14 13 14 14 13 12 13 14 15 15 15 14 14 14 17 16 15 15 16 20 21 20 22 23 25 26 27 28 28 29 30 30 30 31 31 32 32 34 34 34 36 37 40
15 13 13 12 13 14 15 16 17 17 16 16 14 14 15 18 16 15 17 19 21 23 24 26 26 26 28 28 28 29 30 31 31 30 31 31 32 32 32 33 35 38 40
13 12 13 14 15 16 17 16 17 18 18 18 16 16 18 20 19 19 19 20 22 24 25 27 27 28 28 29 29 30 31 31 31 31 31 30 31 32 29 30 33 35 39
14 14 14 15 16 17 17 18 19 20 20 20 18 16 18 20 20 22 23 23 23 24 25 28 29 29 29 29 30 31 32 32 30 30 31 30 31 31 30 30 31 34 37
14 14 15 16 17 18 19 19 20 20 20 20 21 21 20 21 22 24 25 25 25 26 26 27 29 29 29 29 29 30 32 32 31 30 31 30 30 30 30 31 31 33 35
15 16 17 17 19 20 20 20 21 21 21 21 22 22 23 24 24 25 26 27 28 28 28 29 30 30 30 30 30 29 30 31 31 30 28 30 31 29 29 29 31 34 33
16 17 17 18 20 21 22 22 21 21 22 23 24 24 25 26 27 27 27 28 29 29 29 29 31 31 31 30 30 30 30 30 30 28 27 29 30 26 26 27 32 34 32
17 18 20 21 21 21 23 23 23 23 23 24 25 26 27 28 28 29 29 30 30 31 32 32 31 31 32 32 30 30 30 29 28 24 25 28 28 27 28 28 30 32 33